Location: Eichelhof
(49.1519°N, 12.7478°E)
Time: 18:18:01
(UTC+00:00)

Daily predictions for brighter satellites

Satellite Brightness Start Highest point End
(mag) Time Altitude Azimuth Time Altitude Azimuth Time Altitude Azimuth
NOSS 3-4 (A) 4.4 19:42:57 10° SSE 19:47:36 24° ESE 19:52:26 10° ENE
NOSS 3-4 (C) 4.4 19:43:05 10° SSE 19:47:42 24° ESE 19:52:31 10° ENE
STARLINK-1154 4.3 19:45:30 10° WNW 19:49:36 55° NNE 19:53:41 10° E
Cosmos 1302 Rocket 4.4 19:44:39 10° S 19:49:39 44° ESE 19:54:40 10° NE
CZ-2C R/B 3.2 19:44:18 10° N 19:49:55 70° WNW 19:55:29 10° SSW
STARLINK-60 3.0 19:49:00 10° SW 19:52:07 56° SSE 19:55:14 10° ENE
STARLINK-1235 3.1 19:49:06 10° WNW 19:52:33 81° SSW 19:56:00 10° ESE
STARLINK-1197 4.2 19:50:30 10° WNW 19:54:36 56° NNE 19:58:41 10° E
SPOT 1/Viking Rocket 3.9 19:50:41 10° SE 19:55:41 53° ENE 20:00:41 10° N
Cosmos 1486 Rocket 4.4 19:50:51 10° NNW 19:56:03 53° ENE 20:01:11 10° SE
SL-27 R/B 2.7 19:52:45 10° NNW 19:56:18 57° ENE 19:59:45 10° SE
Cosmos 1092 Rocket 4.4 19:50:43 10° SSE 19:56:31 47° E 20:02:23 10° NNE
Cosmos 1842 4.4 19:54:07 10° SSE 19:57:23 27° E 20:00:41 10° NNE
Cosmos 1975 Rocket 3.8 19:54:52 10° SSE 19:58:52 35° E 20:02:52 10° NNE
STARLINK-1198 4.2 19:55:29 10° WNW 19:59:36 58° NNE 20:03:42 10° E
STARLINK-1212 2.9 19:58:54 10° WNW 20:02:03 79° SSW 20:05:11 10° ESE
Cosmos 1943 Rocket 2.2 19:57:03 10° SSW 20:02:33 65° ESE 20:08:07 10° NNE
STARLINK-1105 2.9 19:59:32 10° WNW 20:02:40 78° SSW 20:05:48 10° ESE
STARLINK-1247 2.9 20:00:41 10° WNW 20:03:49 77° SSW 20:06:58 10° ESE
STARLINK-1227 2.9 20:01:15 10° WNW 20:04:24 76° SSW 20:07:32 10° ESE
STARLINK-1199 4.1 20:00:28 10° WNW 20:04:35 60° NNE 20:08:41 10° E
STARLINK-1226 2.9 20:02:24 10° WNW 20:05:32 75° SSW 20:08:41 10° ESE
STARLINK-1215 2.9 20:03:31 10° WNW 20:06:41 73° SSW 20:09:48 10° ESE
STARLINK-1217 2.9 20:05:44 10° WNW 20:08:54 71° SSW 20:11:56 11° SE
NOSS 2-2 (C) 3.8 20:05:23 10° SW 20:08:56 63° NW 20:13:03 10° NE
STARLINK-1210 4.1 20:05:27 10° WNW 20:09:34 62° NNE 20:13:42 10° E
STARLINK-1229 2.9 20:06:50 10° WNW 20:09:59 70° SSW 20:12:59 11° SE
Cosmos 1271 Rocket 4.4 20:07:49 10° SE 20:10:40 20° E 20:13:33 10° NE
STARLINK-1270 3.0 20:07:57 10° WNW 20:11:07 69° SSW 20:14:06 11° SE
STARLINK-1189 3.0 20:10:18 10° WNW 20:13:28 66° SSW 20:16:20 12° SE
NOSS 3-2 (A) 4.4 20:07:03 10° NW 20:14:27 64° SW 20:22:45 10° SSE
STARLINK-1219 4.0 20:10:28 10° WNW 20:14:36 64° NNE 20:18:43 10° E
STARLINK-1188 3.0 20:11:30 10° WNW 20:14:39 65° SSW 20:17:30 12° SE
ATLAS 2AS CENTAUR R/B 3.3 20:07:46 10° S 20:15:13 46° ESE 20:22:41 10° NE
SL-4 R/B 2.4 20:11:00 10° SW 20:15:41 65° SSE 20:20:30 10° ENE
STARLINK-1191 3.0 20:14:04 10° WNW 20:17:13 62° SSW 20:19:58 13° SE
STARLINK-1221 3.1 20:15:19 10° WNW 20:18:26 60° SSW 20:21:09 13° SE
STARLINK-1211 3.9 20:15:27 10° WNW 20:19:35 67° NNE 20:23:43 10° E
STARLINK-1222 3.1 20:16:27 10° WNW 20:19:35 59° SSW 20:22:14 13° SE
STARLINK-1214 3.1 20:17:47 10° WNW 20:20:56 58° SSW 20:23:32 14° SE
Landsat 7 3.9 20:16:21 10° SSE 20:21:06 82° WSW 20:25:54 10° NNW
Cosmos 1242 Rocket 3.4 20:18:27 11° SSE 20:21:38 33° E 20:24:59 10° NNE
Cosmos 1656 Rocket 4.3 20:16:59 10° S 20:22:02 36° ESE 20:27:04 10° NE
Cosmos 1707 4.4 20:20:12 12° SE 20:22:38 19° E 20:25:26 10° NE
ERS-1 Rocket 3.1 20:19:08 11° SSE 20:24:01 68° ENE 20:29:03 10° N
STARLINK-1245 3.9 20:20:25 10° WNW 20:24:33 69° NNE 20:28:41 10° ESE
STARLINK-29 3.0 20:21:35 10° SW 20:24:45 54° SSE 20:27:54 10° ENE
Okean 1 Rocket 4.2 20:20:49 10° NNW 20:25:01 42° W 20:29:10 10° SSW
Cosmos 1455 Rocket 3.2 20:21:17 10° N 20:25:36 62° ENE 20:29:27 13° SSE
Cosmos 1758 4.2 20:24:06 10° N 20:27:54 36° ENE 20:31:01 14° SE
USA 238 DEB 4.4 20:22:29 10° NW 20:29:26 52° WSW 20:36:27 11° SSE
USA 238 4.4 20:22:35 10° NW 20:29:32 53° WSW 20:36:34 11° SSE
STARLINK-1233 3.8 20:25:24 10° WNW 20:29:33 72° NNE 20:33:42 10° ESE
STARLINK-1209 3.9 20:27:56 10° WNW 20:31:15 40° SW 20:33:43 16° SSE
Cosmos 968 Rocket 3.5 20:28:20 10° NNW 20:33:32 82° ENE 20:37:56 14° SSE
IGS 5A 3.9 20:30:00 10° S 20:34:05 58° W 20:38:13 10° NNW
Cosmos 2026 Rocket 4.1 20:28:15 10° S 20:34:29 66° E 20:40:49 10° NNE
STARLINK-1204 3.8 20:30:22 10° WNW 20:34:32 75° NNE 20:38:40 10° ESE
Meteor 1-21 4.4 20:29:07 10° S 20:34:32 53° E 20:39:59 10° NNE
ATLAS CENTAUR R/B 1.9 20:31:05 10° S 20:35:11 39° ESE 20:39:03 10° NE
Okean 2 3.4 20:31:54 10° S 20:36:03 88° W 20:40:15 10° N
Cosmos 2369 Rocket 2.2 20:32:14 10° SSW 20:37:54 86° ESE 20:43:35 10° NNE
CARTOSAT-1 3.5 20:34:06 13° SSE 20:37:56 83° ENE 20:42:17 10° NNW
Cosmos 2227 Rocket 4.5 20:35:49 10° N 20:39:23 17° NE 20:42:57 10° ENE
STARLINK-1238 3.7 20:35:22 10° WNW 20:39:32 79° NNE 20:43:35 11° ESE
Cosmos 1867 3.6 20:34:08 10° NW 20:39:39 88° SW 20:44:11 15° SE
STARLINK-1320 3.9 20:37:54 10° SSW 20:40:32 25° SE 20:43:09 10° E
STARLINK-1322 3.9 20:38:14 10° SSW 20:40:52 25° SE 20:43:30 10° E
STARLINK-1324 3.9 20:38:32 10° SSW 20:41:10 25° SE 20:43:48 10° E
STARLINK-1187 3.8 20:38:15 10° WNW 20:41:21 38° SW 20:43:20 18° SSE
STARLINK-1294 3.9 20:38:52 10° SSW 20:41:30 25° SE 20:44:08 10° E
STARLINK-1261 3.9 20:39:13 10° SSW 20:41:52 25° SE 20:44:31 10° E
Cosmos 1766 4.3 20:38:18 10° NNW 20:42:08 45° W 20:45:56 10° SSW
STARLINK-1325 3.9 20:39:34 10° SSW 20:42:13 26° SE 20:44:53 10° E
STARLINK-1333 3.8 20:39:56 10° SSW 20:42:35 26° SE 20:45:15 10° E
STARLINK-1334 3.8 20:40:13 10° SSW 20:42:52 26° SE 20:45:32 10° E
Cosmos 1553 Rocket 4.2 20:36:52 10° N 20:43:03 58° ENE 20:48:07 15° SSE
STARLINK-1326 3.8 20:40:32 10° SSW 20:43:11 26° SE 20:45:52 10° E
STARLINK-1323 3.8 20:40:54 10° SSW 20:43:34 26° SE 20:46:15 10° E
STARLINK-1349 3.8 20:41:10 10° SSW 20:43:51 26° SE 20:46:32 10° E
STARLINK-1336 3.8 20:41:30 10° SSW 20:44:11 26° SE 20:46:52 10° E
STARLINK-1201 3.7 20:40:21 10° WNW 20:44:30 83° NNE 20:48:22 12° ESE
STARLINK-1331 3.8 20:41:53 10° SSW 20:44:34 27° SE 20:47:15 10° E
STARLINK-1344 3.8 20:42:11 10° SSW 20:44:53 27° SE 20:47:34 10° E
STARLINK-1234 4.1 20:41:56 10° WNW 20:45:13 34° SW 20:47:18 18° SSE
STARLINK-1343 3.8 20:42:33 10° SSW 20:45:14 27° SE 20:47:57 10° E
STARLINK-1346 3.8 20:42:49 10° SSW 20:45:32 27° SE 20:48:16 10° E
STARLINK-1328 3.8 20:43:15 10° SSW 20:45:57 27° SE 20:48:40 10° E
STARLINK-1354 3.8 20:43:32 10° SSW 20:46:15 27° SE 20:48:58 10° E
STARLINK-1347 3.8 20:43:50 10° SSW 20:46:33 28° SE 20:49:17 10° E
STARLINK-1240 4.5 20:42:30 10° WNW 20:46:33 50° N 20:50:36 10° E
STARLINK-1357 3.7 20:44:14 10° SSW 20:46:57 28° SE 20:49:41 10° E
STARLINK-1335 3.7 20:44:32 10° SSW 20:47:15 28° SE 20:49:59 10° E
STARLINK-1327 3.7 20:44:52 10° SSW 20:47:36 28° SE 20:50:20 10° E
STARLINK-1340 3.7 20:45:10 10° SSW 20:47:54 28° SE 20:50:38 10° E
STARLINK-1356 3.7 20:45:32 10° SSW 20:48:17 28° SE 20:51:01 10° E
STARLINK-1345 3.7 20:45:50 10° SSW 20:48:35 29° SE 20:51:21 10° E
STARLINK-1355 3.7 20:46:11 10° SSW 20:48:56 29° SE 20:51:42 10° E
STARLINK-1321 3.7 20:46:31 10° SSW 20:49:16 29° SE 20:52:02 10° E
STARLINK-1206 3.6 20:45:18 10° WNW 20:49:28 86° NNE 20:53:07 13° ESE
STARLINK-1358 3.7 20:46:54 10° SSW 20:49:39 29° SE 20:52:25 10° E
STARLINK-1332 3.7 20:47:11 10° SSW 20:49:57 29° SE 20:52:43 10° E
STARLINK-1348 3.7 20:47:30 10° SSW 20:50:16 29° SE 20:53:03 10° E
STARLINK-1228 4.3 20:47:11 10° WNW 20:50:28 32° SW 20:52:28 19° SSE
STARLINK-1330 3.6 20:47:50 10° SSW 20:50:37 30° SE 20:53:23 10° E
STARLINK-1363 3.6 20:48:09 10° SSW 20:50:56 30° SE 20:53:43 10° E
STARLINK-1337 3.6 20:48:32 10° SSW 20:51:19 30° SE 20:54:06 10° E
STARLINK-1338 4.3 20:48:06 10° SSW 20:51:34 29° SE 20:55:02 10° E
STARLINK-1216 4.5 20:47:30 10° WNW 20:51:34 51° N 20:55:38 10° E
STARLINK-1342 3.6 20:48:51 10° SSW 20:51:38 30° SE 20:54:26 10° E
STARLINK-1364 3.6 20:49:11 10° SSW 20:51:58 30° SE 20:54:46 10° E
STARLINK-1376 3.6 20:49:31 10° SSW 20:52:18 30° SE 20:55:06 10° E
STARLINK-1360 3.6 20:49:51 10° SSW 20:52:38 31° SE 20:55:27 10° E
STARLINK-1361 3.6 20:50:11 10° SSW 20:52:59 31° SE 20:55:48 10° E
STARLINK-1367 3.6 20:50:27 10° SSW 20:53:15 31° SE 20:56:06 10° E
STARLINK-1366 3.6 20:50:49 10° SSW 20:53:38 31° SE 20:56:28 10° E
Resurs 01 Rocket 4.1 20:51:26 10° SW 20:54:23 17° W 20:57:22 10° NW
STARLINK-1205 3.6 20:50:17 10° WNW 20:54:27 90° SSW 20:57:54 15° ESE
STARLINK-1237 4.4 20:52:30 10° WNW 20:56:34 52° N 21:00:38 10° E
Cosmos 1536 Rocket 4.0 20:55:59 18° SSE 20:58:49 43° E 21:02:59 10° NNE
STARLINK-1371 4.1 20:55:51 10° SSW 20:59:23 32° SE 21:02:55 10° ENE
STARLINK-1218 3.6 20:55:16 10° WNW 20:59:26 85° SSW 21:02:42 16° ESE
STARLINK-52 2.8 20:56:51 10° WSW 21:00:04 86° SSE 21:03:18 10° ENE
STARLINK-1202 4.4 20:57:30 10° WNW 21:01:34 53° N 21:05:39 10° E
SPOT 5 3.3 20:57:53 14° S 21:02:28 69° WSW 21:07:50 10° NNW
ATLAS CENTAUR R/B 3.4 21:01:41 10° NNW 21:02:44 13° NNE 21:03:55 10° NE
Cosmos 1544 Rocket 3.6 20:58:46 10° NNW 21:03:08 77° W 21:06:25 17° S
STARLINK-1341 4.0 21:00:01 10° SSW 21:03:36 35° SE 21:07:12 10° ENE
CENTAUR R/B 3.5 20:56:17 10° NW 21:04:09 58° WSW 21:11:10 16° SSE
STARLINK-1254 3.5 21:00:16 10° WNW 21:04:25 81° SSW 21:07:29 18° ESE
STARLINK-1203 4.3 21:01:42 10° WNW 21:05:45 54° N 21:09:45 10° E
BREEZE-M DEB 2.9 21:03:35 10° WSW 21:06:17 72° SSE 21:13:46 10° ENE
Terra 1.8 21:02:43 17° S 21:06:21 82° WSW 21:11:09 10° NNW
USA 215 4.3 21:01:31 10° E 21:07:43 47° N 21:13:55 10° WNW
STARLINK-1374 4.0 21:04:45 10° SSW 21:08:26 37° SE 21:12:08 10° ENE
Cosmos 2292 Rocket 4.4 21:08:26 19° ESE 21:09:14 21° E 21:11:35 10° NE
STARLINK-1231 3.5 21:05:14 10° WNW 21:09:23 77° SSW 21:12:15 19° SE
STARLINK-1246 4.3 21:07:29 10° WNW 21:11:34 56° NNE 21:15:40 10° E
STARLINK-1339 3.9 21:08:59 10° SSW 21:12:43 40° SE 21:16:28 10° ENE
ATLAS 3B R/B 2.7 21:05:55 10° NW 21:12:44 87° SW 21:18:07 18° SE
Cosmos 1726 2.6 21:09:07 10° N 21:12:46 49° ENE 21:14:42 24° SE
Cosmos 1655 Rocket 4.2 21:09:10 17° SSE 21:13:57 59° E 21:20:08 10° NNE
STARLINK-1232 3.6 21:10:15 10° WNW 21:14:23 72° SSW 21:17:04 21° SE
STARLINK-1224 4.2 21:12:27 10° WNW 21:16:33 57° NNE 21:20:39 10° E
STARLINK-1377 3.8 21:13:14 10° SW 21:17:01 43° SE 21:20:48 10° ENE
Cosmos 1503 Rocket 4.3 21:12:35 10° NNW 21:17:51 62° WSW 21:21:37 19° S
STARLINK-1208 3.6 21:15:13 10° WNW 21:19:21 68° SSW 21:21:50 23° SE
Cosmos 1674 4.1 21:18:37 20° ESE 21:19:54 24° E 21:23:00 10° NE
STARLINK-1444 3.4 21:18:07 10° W 21:20:09 39° NNW 21:22:12 10° ENE
Cosmos 1470 3.3 21:16:47 10° NNW 21:20:34 52° W 21:23:07 19° SSW
STARLINK-1452 3.4 21:18:46 10° W 21:20:46 38° NNW 21:22:49 10° ENE
STARLINK-1353 3.7 21:17:29 10° SW 21:21:18 46° SE 21:25:08 10° ENE
STARLINK-1225 4.1 21:17:27 10° WNW 21:21:33 59° NNE 21:25:40 10° E
STARLINK-1392 3.4 21:19:43 10° W 21:21:39 37° NNW 21:23:38 10° ENE
STARLINK-1399 3.4 21:19:44 10° W 21:21:40 37° NNW 21:23:41 10° ENE
STARLINK-1393 3.4 21:19:45 10° W 21:21:42 37° NNW 21:23:42 10° ENE
STARLINK-1394 3.4 21:19:47 10° W 21:21:44 37° NNW 21:23:44 10° ENE
STARLINK-1395 3.4 21:19:51 10° W 21:21:47 37° NNW 21:23:45 10° ENE
STARLINK-1397 3.4 21:19:49 10° W 21:21:47 37° NNW 21:23:47 10° ENE
STARLINK-1396 3.4 21:19:50 10° W 21:21:47 37° NNW 21:23:47 10° ENE
STARLINK-1414 3.4 21:19:51 10° W 21:21:48 37° NNW 21:23:47 10° ENE
STARLINK-1408 3.4 21:19:54 10° W 21:21:50 37° NNW 21:23:49 10° ENE
STARLINK-1404 3.4 21:19:54 10° W 21:21:52 37° NNW 21:23:51 10° ENE
STARLINK-1416 3.4 21:19:56 10° W 21:21:52 37° NNW 21:23:51 10° ENE
STARLINK-1415 3.4 21:19:55 10° W 21:21:53 37° NNW 21:23:53 10° ENE
STARLINK-1450 3.4 21:19:56 10° W 21:21:54 37° NNW 21:23:54 10° ENE
STARLINK-1406 3.4 21:20:00 10° W 21:21:56 37° NNW 21:23:55 10° ENE
STARLINK-1401 3.4 21:19:58 10° W 21:21:56 37° NNW 21:23:57 10° ENE
STARLINK-1417 3.5 21:20:02 10° W 21:22:00 37° NNW 21:24:00 10° ENE
STARLINK-1419 3.5 21:20:04 10° W 21:22:01 37° NNW 21:24:01 10° ENE
STARLINK-1402 3.4 21:20:03 10° W 21:22:01 37° NNW 21:24:01 10° ENE
STARLINK-1413 3.4 21:20:03 10° W 21:22:01 37° NNW 21:24:01 10° ENE
STARLINK-1422 3.5 21:20:09 10° W 21:22:07 37° NNW 21:24:07 10° ENE
STARLINK-1453 3.5 21:20:09 10° W 21:22:08 37° NNW 21:24:08 10° ENE
STARLINK-1398 3.5 21:20:09 10° W 21:22:08 37° NNW 21:24:10 10° ENE
STARLINK-1420 3.5 21:20:12 10° W 21:22:10 37° NNW 21:24:11 10° ENE
STARLINK-1440 3.5 21:20:12 10° W 21:22:11 37° NNW 21:24:11 10° ENE
STARLINK-1436 (VISORSAT) 3.5 21:20:12 10° W 21:22:11 37° NNW 21:24:13 10° ENE
STARLINK-1460 3.5 21:20:15 10° W 21:22:12 37° NNW 21:24:14 10° ENE
STARLINK-1410 3.5 21:20:20 10° W 21:22:17 37° NNW 21:24:18 10° ENE
STARLINK-1423 3.5 21:20:21 10° W 21:22:18 37° NNW 21:24:17 10° ENE
STARLINK-1421 3.5 21:20:21 10° W 21:22:18 37° NNW 21:24:17 10° ENE
STARLINK-1400 3.5 21:20:20 10° W 21:22:18 37° NNW 21:24:18 10° ENE
STARLINK-1454 3.5 21:20:21 10° W 21:22:18 37° NNW 21:24:19 10° ENE
STARLINK-1458 3.5 21:20:23 10° W 21:22:20 37° NNW 21:24:20 10° ENE
STARLINK-1445 3.5 21:20:25 10° W 21:22:23 37° NNW 21:24:24 10° ENE
STARLINK-1446 3.5 21:20:27 10° W 21:22:26 37° NNW 21:24:26 10° ENE
Meteor 2-10 3.9 21:17:22 10° N 21:22:26 84° ENE 21:25:45 22° SSE
STARLINK-1407 3.5 21:20:28 10° W 21:22:26 37° NNW 21:24:26 10° ENE
STARLINK-1405 3.5 21:20:32 10° W 21:22:26 36° NNW 21:24:24 10° ENE
STARLINK-1370 3.5 21:20:30 10° W 21:22:27 37° NNW 21:24:29 10° ENE
STARLINK-1456 3.5 21:20:31 10° W 21:22:29 37° NNW 21:24:28 10° ENE
STARLINK-1457 3.5 21:20:31 10° W 21:22:29 37° NNW 21:24:29 10° ENE
STARLINK-1451 3.5 21:20:32 10° W 21:22:29 37° NNW 21:24:29 10° ENE
STARLINK-1409 3.5 21:20:32 10° W 21:22:30 37° NNW 21:24:30 10° ENE
STARLINK-1439 3.5 21:20:35 10° W 21:22:30 36° NNW 21:24:28 10° ENE
STARLINK-1437 3.5 21:20:33 10° W 21:22:30 37° NNW 21:24:30 10° ENE
STARLINK-1447 3.5 21:20:32 10° W 21:22:30 37° NNW 21:24:31 10° ENE
STARLINK-1455 3.5 21:20:32 10° W 21:22:30 37° NNW 21:24:31 10° ENE
STARLINK-1441 3.5 21:20:34 10° W 21:22:32 37° NNW 21:24:33 10° ENE
STARLINK-1443 3.5 21:20:36 10° W 21:22:35 37° NNW 21:24:36 10° ENE
STARLINK-1351 3.5 21:20:39 10° W 21:22:37 37° NNW 21:24:37 10° ENE
STARLINK-1418 3.5 21:20:39 10° W 21:22:37 37° NNW 21:24:37 10° ENE
STARLINK-1442 3.5 21:20:39 10° W 21:22:37 37° NNW 21:24:38 10° ENE
STARLINK-1403 3.5 21:20:39 10° W 21:22:37 37° NNW 21:24:38 10° ENE
STARLINK-1434 3.5 21:20:39 10° W 21:22:37 37° NNW 21:24:39 10° ENE
STARLINK-1448 3.5 21:20:41 10° W 21:22:39 37° NNW 21:24:40 10° ENE
STARLINK-1433 3.5 21:20:43 10° W 21:22:40 37° NNW 21:24:41 10° ENE
STARLINK-1449 3.5 21:20:43 10° W 21:22:42 37° NNW 21:24:43 10° ENE
STARLINK-1438 3.5 21:20:47 10° W 21:22:45 37° NNW 21:24:45 10° ENE
STARLINK-1411 3.5 21:20:53 10° W 21:22:52 37° NNW 21:24:52 10° ENE
STARLINK-1412 3.5 21:20:53 10° W 21:22:52 37° NNW 21:24:52 10° ENE
OE (NEXTSAT) 4.5 21:20:04 10° WSW 21:23:29 50° S 21:25:23 23° ESE
BREEZE-M DEB (TANK) 3.5 21:09:52 10° WSW 21:23:41 85° S 21:27:22 10° E
STARLINK-1271 3.6 21:20:12 10° WNW 21:24:19 64° SSW 21:26:37 25° SE
STARLINK-1375 3.7 21:21:47 10° SW 21:25:37 49° SE 21:29:30 10° ENE
BREEZE-M DEB (TANK) 3.5 21:19:34 10° SW 21:26:27 30° SSE 21:29:30 10° E
STARLINK-1230 4.1 21:22:24 10° WNW 21:26:32 61° NNE 21:30:39 10° E
SeaSat 1 3.9 21:22:54 10° ENE 21:26:32 20° ESE 21:27:49 18° SE
FALCON 9 DEB 3.0 21:23:12 10° WSW 21:26:38 89° SSE 21:30:05 10° ENE
STARLINK-60 4.1 21:25:12 10° W 21:28:16 45° N 21:31:22 10° ENE
BREEZE-M DEB (TANK) 2.8 21:24:36 10° W 21:28:26 84° SSW 21:32:22 10° ESE
Cosmos 1606 Rocket 4.5 21:25:00 10° N 21:29:02 36° ENE 21:31:19 21° SE
STARLINK-1154 3.7 21:25:10 10° WNW 21:29:16 60° SSW 21:31:22 26° SE
Cosmos 1174 3.5 21:26:27 11° SW 21:29:35 84° NW 21:33:32 10° NE
STARLINK-1350 3.6 21:26:02 10° SW 21:29:55 52° SSE 21:33:49 10° ENE
Cosmos 1340 Rocket 2.8 21:25:56 10° N 21:30:01 81° ENE 21:32:10 27° SSE
COSMOS 2455 2.8 21:25:12 10° SSW 21:31:12 79° ESE 21:37:15 10° NE
STARLINK-1243 4.0 21:27:25 10° WNW 21:31:33 63° NNE 21:35:40 10° E
Cosmos 1025 Rocket 3.1 21:30:39 18° SSW 21:33:49 73° W 21:38:10 10° N
STARLINK-1197 3.8 21:30:10 10° WNW 21:34:14 56° SSW 21:36:10 28° SSE
STARLINK-1352 3.5 21:30:23 10° SW 21:34:17 55° SSE 21:38:13 10° ENE
COSMOS 2487 2.8 21:31:23 10° NNW 21:34:47 52° WSW 21:36:14 29° S
STARLINK-1236 4.0 21:32:23 10° WNW 21:36:31 66° NNE 21:40:36 10° E
NOSS 3-4 (A) 3.6 21:31:47 10° SW 21:37:46 77° NW 21:44:14 10° NE
NOSS 3-4 (C) 3.6 21:31:53 10° SW 21:37:52 77° NW 21:44:20 10° NE
STARLINK-1368 3.5 21:34:45 10° SW 21:38:41 59° SSE 21:42:38 10° ENE
STARLINK-1198 3.8 21:35:10 10° WNW 21:39:12 52° SSW 21:40:57 30° SSE
ALOS 2 3.9 21:37:11 17° ESE 21:39:45 30° ENE 21:43:35 10° N
Aureole 3 2.8 21:38:27 10° N 21:41:28 59° ENE 21:42:17 40° SE
MTI 4.5 21:38:41 10° N 21:41:45 49° WNW 21:43:39 20° SW
STARLINK-1369 3.4 21:38:39 10° SW 21:42:33 62° SSE 21:46:29 10° ENE
STARLINK-1199 3.9 21:40:09 10° WNW 21:44:09 48° SW 21:45:43 31° SSE
ATLAS 5 CENTAUR R/B 1.3 21:39:50 10° SW 21:44:41 63° SE 21:46:57 10° NE
RESURS DK-1 2.4 21:42:39 27° S 21:44:43 58° ESE 21:48:48 10° NE
EXPRESS MD2 4.2 21:41:16 10° W 21:45:18 83° N 21:53:49 10° E
Cosmos 1953 2.5 21:41:24 10° NNW 21:45:22 63° W 21:47:21 27° S
ERBS 4.0 21:42:49 10° NW 21:45:50 31° NNE 21:48:52 10° E
Cosmos 1271 Rocket 4.0 21:42:54 11° SW 21:46:23 38° WNW 21:50:08 10° N
STARLINK-1269 3.8 21:42:21 10° WNW 21:46:31 71° NNE 21:50:11 13° ESE
Cosmos 2297 Rocket 3.2 21:41:23 10° NNW 21:46:42 40° NE 21:51:12 14° ESE
Cosmos 1943 Rocket 4.3 21:42:02 10° WSW 21:46:46 28° NW 21:51:34 10° NNE
STARLINK-1372 3.4 21:43:03 10° SW 21:46:59 66° SSE 21:50:55 10° ENE
Meteor 2-19 Rocket 4.4 21:42:44 21° S 21:47:00 78° E 21:53:07 10° NNE
CZ-4C R/B 3.8 21:46:26 14° ESE 21:47:07 14° ESE 21:49:54 10° ENE
Cosmos 1626 3.9 21:46:19 17° ESE 21:47:10 18° E 21:49:48 10° NE
STARLINK-1210 4.0 21:45:09 10° WNW 21:49:07 45° SW 21:50:30 32° SSE
Cosmos 2219 3.8 21:45:07 10° NNW 21:50:37 49° NE 21:54:40 18° ESE
Lacrosse 4 Rocket 3.6 21:47:11 10° NNW 21:50:37 22° NE 21:53:58 10° E
STARLINK-1378 3.4 21:47:25 10° SW 21:51:22 70° SSE 21:55:20 10° ENE
STARLINK-1200 3.8 21:47:20 10° WNW 21:51:30 74° NNE 21:54:57 14° ESE
Cosmos 2228 3.2 21:47:56 10° N 21:52:09 59° ENE 21:54:03 30° SE
Spot 4 3.9 21:50:03 27° SSE 21:52:43 76° ENE 21:57:34 10° NNW
STARLINK-1219 4.1 21:50:11 10° WNW 21:54:06 42° SW 21:55:19 33° S
Cosmos 921 Rocket 3.8 21:52:46 28° SE 21:54:07 34° E 21:58:06 10° NE
SL-4 R/B 2.8 21:50:44 10° W 21:55:31 67° N 22:00:23 10° ENE
STARLINK-1379 3.4 21:51:52 10° WSW 21:55:50 74° SSE 21:59:49 10° ENE
STARLINK-1192 3.7 21:52:20 10° WNW 21:56:30 78° NNE 21:59:45 16° ESE
Cosmos 1707 4.0 21:55:20 15° SW 21:58:15 38° WNW 22:01:53 10° N
STARLINK-1211 4.2 21:55:10 10° WNW 21:59:03 39° SW 22:00:05 33° S
STARLINK-1329 3.4 21:55:34 10° WSW 21:59:33 77° SSE 22:03:34 10° ENE
STARLINK-29 4.0 21:57:50 10° W 22:00:57 46° NNW 22:04:04 10° ENE
STARLINK-1244 3.6 21:57:17 10° WNW 22:01:28 81° NNE 22:04:30 18° ESE
EO 1 Del DPAF 3.1 21:59:36 10° NNE 22:03:25 82° ESE 22:04:55 35° S
SL-4 R/B 2.1 22:03:44 26° ENE 22:03:44 26° ENE 22:05:25 10° N
STARLINK-1245 4.3 22:00:10 10° WNW 22:03:59 36° SW 22:04:51 32° S
STARLINK-1362 3.4 22:00:03 10° WSW 22:04:02 81° SSE 22:08:03 10° ENE
Meteor 2-15 4.5 21:59:36 10° NNW 22:05:45 76° W 22:09:27 25° S
ATLAS 2AS CENTAUR R/B 3.6 21:58:14 10° WSW 22:06:10 61° NW 22:13:59 10° NE
Timation 2 Rocket 3.9 22:00:01 10° NNW 22:06:18 74° WSW 22:09:46 27° SSE
STARLINK-1138 3.6 22:02:16 10° WNW 22:06:26 85° NNE 22:09:17 20° ESE
STARLINK-1373 3.4 22:04:32 10° WSW 22:08:31 85° SSE 22:12:32 10° ENE
STARLINK-1233 4.4 22:05:11 10° WNW 22:08:57 34° SW 22:09:38 32° SSW
STARLINK-1143 3.5 22:07:15 10° WNW 22:11:26 89° NE 22:14:04 22° ESE
Okean 1-7 Rocket 4.3 22:09:54 29° SE 22:11:36 41° E 22:15:53 10° NNE
Cosmos 1726 Rocket 3.5 22:08:02 10° N 22:12:23 78° ENE 22:14:12 34° SSE
STARLINK-1390 3.4 22:09:01 10° WSW 22:13:02 89° SE 22:17:03 10° ENE
Helios 1A 4.2 22:10:55 21° ESE 22:13:03 33° ENE 22:16:49 10° N
STARLINK-1204 4.5 22:10:11 10° WNW 22:13:52 32° SW 22:14:25 30° SSW
ATLAS CENTAUR R/B 3.1 22:10:14 10° WSW 22:14:09 33° NW 22:17:51 10° NNE
Cosmos 1697 Rocket 4.4 22:12:54 15° ESE 22:14:36 18° E 22:18:14 10° ENE
BREEZE-M R/B 4.0 22:05:54 10° SW 22:15:11 53° SSE 22:19:35 10° E
STARLINK-1320 3.1 22:13:01 10° WSW 22:16:08 68° NNW 22:19:15 10° ENE
Cosmos 1892 Rocket 3.8 22:14:31 34° SSE 22:16:09 54° E 22:20:24 10° NNE
STARLINK-1241 3.5 22:12:15 10° WNW 22:16:25 87° SSW 22:18:51 24° ESE
STARLINK-1322 3.1 22:13:22 10° WSW 22:16:29 68° NNW 22:19:36 10° ENE
STARLINK-1324 3.1 22:13:40 10° WSW 22:16:46 68° NNW 22:19:54 10° ENE
STARLINK-1294 3.1 22:14:00 10° WSW 22:17:06 68° NNW 22:20:14 10° ENE
Cosmos 2098 Rocket 4.4 22:12:13 23° S 22:17:16 87° E 22:24:38 10° N
STARLINK-1261 3.2 22:14:23 10° WSW 22:17:29 67° NNW 22:20:37 10° ENE
STARLINK-1325 3.2 22:14:44 10° WSW 22:17:50 67° NNW 22:20:57 10° ENE
STARLINK-1333 3.2 22:15:06 10° WSW 22:18:13 67° NNW 22:21:19 10° ENE
STARLINK-1334 3.2 22:15:23 10° WSW 22:18:29 67° NNW 22:21:37 10° ENE
STARLINK-1326 3.2 22:15:43 10° WSW 22:18:49 66° NNW 22:21:56 10° ENE
STARLINK-1365 3.5 22:14:48 10° WSW 22:18:51 85° NNW 22:22:55 10° ENE
STARLINK-1323 3.2 22:16:05 10° WSW 22:19:12 66° NNW 22:22:19 10° ENE
STARLINK-1349 3.2 22:16:23 10° WSW 22:19:29 66° NNW 22:22:35 10° ENE
STARLINK-1336 3.2 22:16:43 10° WSW 22:19:50 66° NNW 22:22:56 10° ENE
SJ 16-02 2.5 22:15:51 10° N 22:20:00 37° ENE 22:22:33 20° ESE
STARLINK-1331 3.2 22:17:06 10° WSW 22:20:12 65° NNW 22:23:19 10° ENE
STARLINK-1344 3.2 22:17:24 10° WSW 22:20:30 65° NNW 22:23:38 10° ENE
STARLINK-1343 3.2 22:17:47 10° WSW 22:20:53 65° NNW 22:23:59 10° ENE
STARLINK-1346 3.2 22:18:04 10° WSW 22:21:11 65° NNW 22:24:19 10° ENE
STARLINK-1239 3.5 22:17:14 10° WNW 22:21:24 83° SSW 22:23:39 26° ESE
STARLINK-1328 3.2 22:18:30 10° WSW 22:21:36 64° NNW 22:24:43 10° ENE
STARLINK-1354 3.3 22:18:48 10° WSW 22:21:54 64° NNW 22:25:00 10° ENE
STARLINK-1347 3.3 22:19:06 10° WSW 22:22:12 64° NNW 22:25:19 10° ENE
STARLINK-1357 3.3 22:19:31 10° WSW 22:22:37 63° NNW 22:25:44 10° ENE
STARLINK-1335 3.3 22:19:48 10° WSW 22:22:54 63° NNW 22:26:00 10° ENE
Cosmos 2315 Rocket 4.1 22:16:43 10° NNW 22:22:55 73° W 22:26:32 26° S
STARLINK-1327 3.3 22:20:09 10° WSW 22:23:15 63° NNW 22:26:21 10° ENE
STARLINK-1340 3.3 22:20:27 10° WSW 22:23:33 63° NNW 22:26:40 10° ENE
Cosmos 1437 3.7 22:23:34 30° E 22:23:36 30° E 22:26:18 10° NNE
STARLINK-1356 3.3 22:20:50 10° W 22:23:56 63° NNW 22:27:02 10° ENE
STARLINK-1345 3.3 22:21:09 10° W 22:24:15 62° NNW 22:27:21 10° ENE
STARLINK-1355 3.3 22:21:30 10° W 22:24:36 62° NNW 22:27:42 10° ENE
Cosmos 2227 Rocket 2.5 22:19:01 10° NNW 22:24:40 61° ENE 22:28:22 22° SE
STARLINK-1321 3.3 22:21:51 10° W 22:24:57 62° NNW 22:28:03 10° ENE
STARLINK-1358 3.3 22:22:14 10° W 22:25:20 62° NNW 22:28:27 10° ENE
STARLINK-1332 3.3 22:22:31 10° W 22:25:37 61° NNW 22:28:44 10° ENE
STARLINK-1348 3.3 22:22:51 10° W 22:25:57 61° NNW 22:29:03 10° ENE
STARLINK-1330 3.3 22:23:11 10° W 22:26:17 61° NNW 22:29:24 10° ENE
STARLINK-1240 3.5 22:22:11 10° WNW 22:26:21 78° SSW 22:28:23 29° SE
STARLINK-1363 3.4 22:23:31 10° W 22:26:37 61° NNW 22:29:43 10° ENE
STARLINK-1337 3.4 22:23:54 10° W 22:27:00 60° NNW 22:30:06 10° ENE
STARLINK-1342 3.4 22:24:14 10° W 22:27:19 60° NNW 22:30:25 10° ENE
STARLINK-1364 3.4 22:24:34 10° W 22:27:39 60° NNW 22:30:46 10° ENE
STARLINK-1376 3.4 22:24:54 10° W 22:28:00 60° NNW 22:31:05 10° ENE
STARLINK-1360 3.4 22:25:14 10° W 22:28:20 60° NNW 22:31:27 10° ENE
STARLINK-1361 3.4 22:25:35 10° W 22:28:41 59° NNW 22:31:47 10° ENE
STARLINK-1367 3.4 22:25:51 10° W 22:28:58 60° NNW 22:32:05 10° ENE
STARLINK-1366 3.4 22:26:14 10° W 22:29:20 59° NNW 22:32:26 10° ENE
STARLINK-1338 3.6 22:26:19 10° WSW 22:30:17 76° NNW 22:34:16 10° ENE
STARLINK-1216 3.5 22:27:12 10° WNW 22:31:20 74° SSW 22:33:11 32° SE
Cosmos 1908 4.1 22:31:45 10° NNW 22:35:20 39° W 22:36:36 30° SW
Cosmos 1356 Rocket 4.0 22:31:53 10° N 22:36:02 50° ENE 22:37:47 30° SE
STARLINK-1237 3.5 22:32:11 10° WNW 22:36:18 70° SSW 22:37:58 34° SE
STARLINK-52 4.3 22:33:20 10° WNW 22:36:24 41° N 22:39:29 10° ENE
SL-14 R/B 3.3 22:36:22 43° SSE 22:37:25 64° E 22:41:15 10° NNE
STARLINK-1371 3.7 22:34:00 10° WSW 22:37:55 71° NNW 22:41:50 10° ENE
Cosmos 2084 4.3 22:33:41 10° WSW 22:38:02 53° NW 22:42:26 10° NE
STARLINK-1202 3.5 22:37:10 10° WNW 22:41:17 65° SSW 22:42:46 37° SE
STARLINK-1341 3.7 22:38:15 10° WSW 22:42:10 69° NNW 22:46:05 10° ENE
Terra 4.3 22:43:30 10° WSW 22:44:53 11° W 22:46:14 10° WNW
STARLINK-1203 3.5 22:41:08 10° WNW 22:45:10 62° SSW 22:46:22 41° SSE
Thor Agena Rocket 4.4 22:40:46 10° N 22:45:49 46° WNW 22:49:40 16° SW
STARLINK-1374 3.9 22:43:22 10° W 22:47:19 66° NNW 22:51:19 10° ENE
Cosmos 1300 2.6 22:44:18 10° N 22:48:09 87° W 22:49:12 46° S
Meteor 2-5 Rocket 3.8 22:46:11 26° SSW 22:49:23 73° WNW 22:55:05 10° N
USA 215 3.4 22:43:48 10° ESE 22:50:21 78° NNE 22:56:54 10° NW
STARLINK-1246 3.6 22:47:09 10° WNW 22:51:13 57° SSW 22:52:19 42° SSE
STARLINK-1339 3.9 22:47:41 10° W 22:51:39 64° NNW 22:55:38 10° ENE
STARLINK-1444 4.2 22:52:25 10° WNW 22:54:21 27° N 22:56:21 10° ENE
STARLINK-1452 4.2 22:53:03 10° WNW 22:54:58 27° N 22:56:57 10° ENE
Cosmos 1674 4.2 22:53:25 19° WSW 22:55:19 29° WNW 22:58:41 10° N
STARLINK-1392 4.2 22:53:55 10° WNW 22:55:48 27° N 22:57:12 14° ENE
STARLINK-1399 4.2 22:53:58 10° WNW 22:55:50 27° N 22:57:21 13° ENE
STARLINK-1393 4.2 22:54:00 10° WNW 22:55:52 27° N 22:57:19 14° ENE
STARLINK-1394 4.2 22:54:01 10° WNW 22:55:54 27° N 22:57:21 14° ENE
STARLINK-1395 4.2 22:54:06 10° WNW 22:55:56 27° N 22:57:08 16° ENE
STARLINK-1397 4.2 22:54:04 10° WNW 22:55:56 27° N 22:57:29 13° ENE
STARLINK-1396 4.2 22:54:05 10° WNW 22:55:57 27° N 22:57:27 13° ENE
STARLINK-1414 4.2 22:54:05 10° WNW 22:55:57 27° N 22:57:21 14° ENE
STARLINK-1377 4.0 22:52:02 10° W 22:56:00 62° NNW 22:59:58 10° ENE
STARLINK-1408 4.2 22:54:08 10° WNW 22:56:00 27° N 22:57:23 15° ENE
STARLINK-1404 4.2 22:54:09 10° WNW 22:56:02 27° N 22:57:34 13° ENE
STARLINK-1416 4.2 22:54:10 10° WNW 22:56:02 27° N 22:57:28 14° ENE
STARLINK-1415 4.2 22:54:10 10° WNW 22:56:04 27° N 22:57:42 12° ENE
STARLINK-1450 4.2 22:54:12 10° WNW 22:56:05 27° N 22:57:44 12° ENE
STARLINK-1406 4.2 22:54:14 10° WNW 22:56:06 27° N 22:57:26 15° ENE
STARLINK-1401 4.2 22:54:14 10° WNW 22:56:07 27° N 22:57:45 12° ENE
STARLINK-1224 3.7 22:52:07 10° WNW 22:56:10 53° SSW 22:57:05 43° SSE
STARLINK-1417 4.2 22:54:17 10° WNW 22:56:11 27° N 22:57:49 12° ENE
STARLINK-1402 4.2 22:54:18 10° WNW 22:56:12 27° N 22:57:49 12° ENE
STARLINK-1413 4.2 22:54:18 10° WNW 22:56:12 27° N 22:57:50 12° ENE
STARLINK-1419 4.2 22:54:19 10° WNW 22:56:12 27° N 22:57:44 13° ENE
YAOGAN 11 4.1 22:54:28 34° SSE 22:56:15 71° ENE 23:00:32 10° N
STARLINK-1422 4.2 22:54:24 10° WNW 22:56:18 27° N 22:57:54 13° ENE
STARLINK-1453 4.2 22:54:25 10° WNW 22:56:19 27° N 22:58:03 12° ENE
STARLINK-1398 4.2 22:54:26 10° WNW 22:56:20 27° N 22:58:13 11° ENE
STARLINK-1420 4.2 22:54:28 10° WNW 22:56:22 27° N 22:58:02 12° ENE
STARLINK-1440 4.2 22:54:29 10° WNW 22:56:23 27° N 22:58:06 12° ENE
STARLINK-1436 (VISORSAT) 4.2 22:54:29 10° WNW 22:56:24 27° N 22:58:19 10° ENE
STARLINK-1460 4.2 22:54:31 10° WNW 22:56:24 27° N 22:58:05 12° ENE
STARLINK-1410 4.2 22:54:35 10° WNW 22:56:29 27° N 22:58:07 12° ENE
STARLINK-1423 4.2 22:54:36 10° WNW 22:56:29 27° N 22:58:00 13° ENE
STARLINK-1421 4.2 22:54:37 10° WNW 22:56:29 27° N 22:58:00 13° ENE
STARLINK-1400 4.2 22:54:36 10° WNW 22:56:30 27° N 22:58:08 12° ENE
STARLINK-1454 4.2 22:54:37 10° WNW 22:56:31 27° N 22:58:10 12° ENE
STARLINK-1458 4.2 22:54:40 10° WNW 22:56:33 27° N 22:58:08 13° ENE
STARLINK-1445 4.2 22:54:42 10° WNW 22:56:36 27° N 22:58:19 12° ENE
STARLINK-1407 4.2 22:54:43 10° WNW 22:56:38 27° N 22:58:20 12° ENE
STARLINK-1446 4.2 22:54:43 10° WNW 22:56:38 27° N 22:58:21 12° ENE
STARLINK-1405 4.2 22:54:47 10° WNW 22:56:38 27° N 22:57:51 16° ENE
STARLINK-1370 4.2 22:54:46 10° WNW 22:56:39 27° N 22:58:22 12° ENE
STARLINK-1456 4.2 22:54:48 10° WNW 22:56:40 27° N 22:58:16 13° ENE
STARLINK-1457 4.2 22:54:48 10° WNW 22:56:41 27° N 22:58:16 13° ENE
STARLINK-1451 4.2 22:54:48 10° WNW 22:56:41 27° N 22:58:16 13° ENE
STARLINK-1439 4.2 22:54:50 10° WNW 22:56:41 27° N 22:57:54 16° ENE
STARLINK-1409 4.2 22:54:48 10° WNW 22:56:41 27° N 22:58:17 13° ENE
STARLINK-1447 4.2 22:54:49 10° WNW 22:56:42 27° N 22:58:25 12° ENE
STARLINK-1455 4.2 22:54:49 10° WNW 22:56:42 27° N 22:58:25 12° ENE
STARLINK-1437 4.2 22:54:49 10° WNW 22:56:43 27° N 22:58:21 12° ENE
STARLINK-1441 4.2 22:54:51 10° WNW 22:56:45 27° N 22:58:28 12° ENE
STARLINK-1443 4.2 22:54:53 10° WNW 22:56:48 27° N 22:58:36 11° ENE
STARLINK-1351 4.2 22:54:55 10° WNW 22:56:50 27° N 22:58:33 12° ENE
STARLINK-1418 4.2 22:54:55 10° WNW 22:56:50 27° N 22:58:32 12° ENE
STARLINK-1403 4.2 22:54:56 10° WNW 22:56:50 27° N 22:58:36 11° ENE
STARLINK-1434 4.2 22:54:56 10° WNW 22:56:50 27° N 22:58:38 11° ENE
STARLINK-1442 4.2 22:54:56 10° WNW 22:56:51 27° N 22:58:34 12° ENE
STARLINK-1448 4.2 22:54:58 10° WNW 22:56:52 27° N 22:58:35 12° ENE
STARLINK-1433 4.2 22:54:59 10° WNW 22:56:53 27° N 22:58:35 12° ENE
STARLINK-1449 4.2 22:55:01 10° WNW 22:56:55 27° N 22:58:40 12° ENE
STARLINK-1438 4.2 22:55:04 10° WNW 22:56:57 27° N 22:58:32 13° ENE
STARLINK-1412 4.2 22:55:11 10° WNW 22:57:05 27° N 22:58:49 12° ENE
STARLINK-1411 4.2 22:55:11 10° WNW 22:57:05 27° N 22:58:44 12° ENE
Cosmos 1626 Rocket 3.9 22:57:33 35° SSE 22:59:01 53° E 23:03:18 10° NNE
STARLINK-1353 4.0 22:56:22 10° W 23:00:19 60° NNW 23:04:18 10° ENE
STARLINK-1225 3.8 22:57:07 10° WNW 23:01:09 50° SW 23:01:52 44° S
ATLAS 3B R/B 4.2 22:57:41 10° WNW 23:02:36 21° WSW 23:05:21 17° SW
FALCON 9 DEB 4.4 23:00:36 10° WNW 23:03:54 43° N 23:07:13 10° ENE
Cosmos 2292 4.0 23:01:18 10° N 23:04:27 83° E 23:04:47 67° SSE
SeaSat 1 2.6 22:59:32 10° NNE 23:04:28 71° WNW 23:07:35 23° SW
STARLINK-1375 4.1 23:00:45 10° W 23:04:42 58° NNW 23:08:39 10° ENE
STARLINK-60 4.1 23:01:39 10° WNW 23:04:43 44° N 23:07:48 10° E
STARLINK-1230 3.9 23:02:06 10° WNW 23:06:05 46° SW 23:06:38 43° S
FALCON 9 R/B 4.3 23:08:51 18° SE 23:08:51 18° SE 23:13:31 10° ESE
Cosmos 2058 Rocket 3.7 23:04:00 10° NNW 23:08:16 45° W 23:09:53 31° SW
BREEZE M DEB (TANK) 4.3 23:06:30 10° W 23:13:32 - ESE 23:06:46 12° W
STARLINK-1350 4.2 23:05:05 10° W 23:09:01 57° NNW 23:12:59 10° ENE
Uosat 12 SS-18 rocket 4.3 23:05:48 10° NW 23:10:05 65° NE 23:13:05 20° SE
STARLINK-1243 3.9 23:07:08 10° WNW 23:11:04 43° SW 23:11:27 42° SSW
Cosmos 1980 Rocket 3.5 23:10:05 21° SE 23:12:16 27° ESE 23:16:54 10° NE
Helios 1B rocket 3.3 23:08:57 10° NNE 23:12:49 37° E 23:14:05 30° SE
STARLINK-1352 4.2 23:09:31 10° W 23:13:27 55° NNW 23:17:24 10° ENE
STARLINK-1236 4.0 23:12:07 10° WNW 23:16:01 40° SW 23:16:12 40° SSW
ALOS 2 3.6 23:14:35 27° SW 23:16:01 34° W 23:20:02 10° NNW
Cosmos 468 Rocket 4.0 23:14:13 34° S 23:16:23 66° ESE 23:21:29 10° NNE
STARLINK-1368 4.3 23:13:56 10° W 23:17:52 54° NNW 23:21:49 10° ENE
Cosmos 1745 Rocket 3.9 23:16:47 30° S 23:20:03 80° E 23:26:13 10° N
STARLINK-1369 4.3 23:17:41 10° W 23:21:34 53° N 23:25:28 10° ENE
Cosmos 1626 3.2 23:20:51 27° WSW 23:22:10 36° WNW 23:25:39 10° N
ERBS 2.3 23:19:02 10° WNW 23:22:16 56° SW 23:22:16 56° SW
Cosmos 2369 4.0 23:20:09 31° S 23:22:37 52° ESE 23:28:08 10° NE
Cosmos 1455 2.8 23:20:09 10° N 23:23:49 48° ENE 23:25:11 31° SE
Meteor 1-29 4.3 23:21:03 10° NE 23:23:56 26° E 23:24:32 25° ESE
Cosmos 1937 Rocket 3.5 23:18:49 10° NNW 23:24:07 85° ENE 23:27:02 28° SSE
Cosmos 1812 Rocket 3.5 23:20:50 10° N 23:25:19 84° E 23:27:04 36° SSE
STARLINK-1269 4.3 23:22:08 10° WNW 23:25:46 35° SW 23:25:46 35° SW
STARLINK-1372 4.3 23:22:09 10° W 23:26:02 51° N 23:29:55 10° ENE
Cosmos 2263 Rocket 3.8 23:21:35 10° NNW 23:26:38 32° NE 23:31:37 10° ESE
STARLINK-43 3.2 23:26:08 49° SSW 23:26:56 66° SSE 23:30:36 10° ENE
STARLINK-55 4.1 23:28:11 31° ESE 23:28:11 31° ESE 23:30:23 10° ENE
Alouette 2 Rocket 4.1 23:23:33 10° N 23:28:27 52° ENE 23:30:22 26° SE
Lacrosse 4 Rocket 1.4 23:25:27 10° NW 23:29:44 64° WSW 23:31:03 40° S
Meteor 1-24 Rocket 4.4 23:27:06 22° SW 23:30:19 45° WNW 23:35:42 10° N
STARLINK-1378 4.4 23:26:35 10° W 23:30:28 51° N 23:34:22 10° ENE
Cosmos 2297 Rocket 2.8 23:25:31 10° NW 23:30:47 41° WSW 23:32:59 29° SSW
STARLINK-1200 4.4 23:27:09 10° WNW 23:30:33 32° SW 23:30:33 32° SW
Cosmos 1656 3.7 23:27:54 26° SW 23:31:13 77° WNW 23:36:50 10° NNE
Cosmos 1703 4.4 23:30:32 25° SE 23:31:54 33° E 23:35:26 10° NNE
Cosmos 1898 Rocket 3.6 23:27:35 10° NNW 23:32:52 63° WSW 23:35:13 32° S
Cosmos 1825 Rocket 4.5 23:31:32 26° SE 23:33:19 38° E 23:37:20 10° NNE
CZ-4C R/B 2.1 23:31:35 29° SSW 23:34:21 81° SE 23:40:28 10° NE
Cosmos 2219 4.2 23:29:38 10° NW 23:34:35 32° WSW 23:36:34 25° SW
STARLINK-1379 4.4 23:31:06 10° W 23:34:59 50° N 23:38:53 10° ENE
SL-4 R/B 2.6 23:30:45 10° WNW 23:35:37 75° NNE 23:40:24 10° E
STARLINK-1267 4.4 23:36:27 28° SE 23:36:27 28° SE 23:39:20 10° E
Cosmos 1602 Rocket 3.5 23:35:23 38° SSW 23:37:00 82° W 23:41:22 10° N
STARLINK-29 4.2 23:34:21 10° WNW 23:37:28 43° N 23:40:33 10° E
STARLINK-1329 4.5 23:34:51 10° W 23:38:45 49° N 23:42:39 10° ENE
STARLINK-28 3.4 23:39:11 45° SE 23:39:11 45° SE 23:41:58 10° ENE
PSLV R/B 3.6 23:37:42 10° NNE 23:42:10 77° ESE 23:43:52 36° S
Cosmos 990 Rocket 4.3 23:37:24 10° NNW 23:42:29 50° WSW 23:44:36 31° SSW
STARLINK-1207 4.2 23:42:56 32° SE 23:42:56 32° SE 23:46:09 10° ENE
STARLINK-1362 4.5 23:39:22 10° W 23:43:16 49° N 23:47:10 10° ENE
ATLAS CENTAUR R/B 2.6 23:42:17 10° WNW 23:43:35 25° W 23:43:35 25° W
Cosmos 2082 3.8 23:39:50 10° NW 23:45:24 60° WSW 23:48:10 29° S
STARLINK-1266 4.1 23:46:11 34° SE 23:46:11 34° SE 23:49:33 10° ENE
Helios 1A 4.2 23:47:32 24° WSW 23:48:38 27° W 23:52:14 10° NW
STARLINK-33 3.2 23:49:21 46° SE 23:49:21 46° SE 23:52:01 10° ENE
STARLINK-1284 4.0 23:49:26 36° SSE 23:49:31 36° SE 23:52:59 10° ENE
Cosmos 2322 Rocket 4.4 23:48:36 10° SE 23:51:21 14° E 23:54:06 10° ENE
Cosmos 1814 Rocket 4.4 23:49:00 29° S 23:51:32 53° ESE 23:56:41 10° NNE
STARLINK-26 3.2 23:51:17 52° S 23:51:39 56° SSE 23:55:02 10° ENE
STARLINK-1320 4.4 23:49:17 10° WNW 23:52:15 38° N 23:55:12 10° ENE
STARLINK-1322 4.4 23:49:38 10° WNW 23:52:36 38° N 23:55:34 10° ENE
Meteor 2-1 Rocket 4.5 23:47:28 10° NNW 23:52:53 55° W 23:55:37 29° SSW
STARLINK-1324 4.4 23:49:56 10° WNW 23:52:53 38° N 23:55:51 10° ENE
STARLINK-1258 3.9 23:52:43 38° SSE 23:52:55 38° SE 23:56:25 10° ENE
STARLINK-1294 4.4 23:50:16 10° WNW 23:53:13 38° N 23:56:12 10° ENE
Cosmos 2181 Rocket 4.2 23:46:58 10° N 23:53:26 71° ENE 23:58:00 20° SSE
STARLINK-1261 4.4 23:50:39 10° WNW 23:53:36 38° N 23:56:34 10° ENE
STARLINK-1325 4.4 23:51:00 10° WNW 23:53:57 38° N 23:56:55 10° ENE
STARLINK-1333 4.4 23:51:22 10° WNW 23:54:20 38° N 23:57:18 10° ENE
STARLINK-1334 4.4 23:51:39 10° WNW 23:54:37 38° N 23:57:34 10° ENE
STARLINK-1326 4.4 23:51:59 10° WNW 23:54:56 38° N 23:57:53 10° ENE
STARLINK-1323 4.4 23:52:22 10° WNW 23:55:19 38° N 23:58:17 10° ENE
STARLINK-1349 4.4 23:52:39 10° WNW 23:55:36 38° N 23:58:33 10° ENE
STARLINK-1336 4.4 23:52:59 10° WNW 23:55:57 38° N 23:58:55 10° ENE
STARLINK-1331 4.4 23:53:22 10° WNW 23:56:20 38° N 23:59:17 10° ENE
STARLINK-1292 3.8 23:56:00 39° SSE 23:56:20 40° SE 23:59:52 10° ENE
STARLINK-1344 4.4 23:53:40 10° WNW 23:56:38 38° N 23:59:36 10° ENE
STARLINK-1343 4.4 23:54:03 10° WNW 23:57:01 38° N 23:59:58 10° ENE
